Notices

What's New in latest Release from April 7th, 2021:

- Updated Glossary, including Speed of Maximum Gust, and Total Hourly Precipitation

- Updated national and regional climate services offices contacts and prices information

- Addition of station inventory lists for 1981-2010, 1971-2000, and 1961-1990 Normals.

If you haven't already, please take our survey and provide feedback about our website: https://eccc.sondage-survey.ca/f/LanguageSelection.aspx?s=442ca660-fcf1-47c0-95a9-59707d6fd709

Hourly Data Report for April 01, 2019

MIRAMICHI RCS
NEW BRUNSWICK
Current Station Operator: ECCC - MSC

47°00'34.000" N
65°27'54.000" W
33.00 m
8100989
71744
ACQ

Download Data

Hourly Data (April 2019)
Hourly Data Report for April 1, 2019
TIME
LST
Temp Definition
°C
Dew Point Definition
°C
Rel Hum Definition
%
Precip. Amount Definition
mm

Wind Dir Definition
10's deg

Wind Spd Definition
km/h
Visibility Definition
km
Stn Press Definition
kPa
Hmdx Definition


Wind Chill Definition


Weather Definition


00:00 8.7 8.3 97 1.4 21 18   99.36     LegendNANA
01:00 7.4 7.0 98 2.1 22 13   99.30     LegendNANA
02:00 7.0 6.6 97 2.8 21 13   99.18     LegendNANA
03:00 6.1 5.6 97 2.9 27 12   99.16     LegendNANA
04:00 3.3 2.0 91 0.9 34 11   99.11     LegendNANA
05:00 2.0 1.0 93 0.3 31 11   99.19     LegendNANA
06:00 0.8 -0.5 91 0.2 30 11   99.20     LegendNANA
07:00 0.3 -1.9 85 0.0 29 23   99.28     LegendNANA
08:00 0.1 -3.4 77 0.0 30 20   99.34     LegendNANA
09:00 -0.5 -5.2 71 0.0 29 26   99.37   -7 LegendNANA
10:00 -0.2 -6.6 62 0.0 29 26   99.40   -6 LegendNANA
11:00 0.5 -6.1 61 0.0 29 23   99.39     LegendNANA
12:00 0.7 -7.0 56 0.0 29 27   99.45     LegendNANA
13:00 0.8 -8.0 52 0.0 28 31   99.51     LegendNANA
14:00 1.3 -8.5 48 0.0 28 31   99.57     LegendNANA
15:00 1.4 -9.1 45 0.0 27 33   99.69     LegendNANA
16:00 1.3 -8.9 46 0.0 28 34   99.82     LegendNANA
17:00 0.9 -9.8 45 0.0 28 34   99.96     LegendNANA
18:00 0.3 -10.7 43 0.0 28 34   100.13     LegendNANA
19:00 -0.9 -11.2 45 0.0 29 30   100.37   -8 LegendNANA
20:00 -1.5 -13.0 41 0.0 28 30   100.59   -8 LegendNANA
21:00 -2.1 -14.3 39 0.0 28 31   100.78   -9 LegendNANA
22:00 -2.8 -13.6 43 0.0 28 25   100.94   -10 LegendNANA
23:00 -2.8 -13.1 45 0.0 28 23   101.06   -9 LegendNANA

Notes on Data Quality.

Legend

  • E = Estimated
  • M = Missing
  • NA = Not Available*
  • [empty] = Indicates an unobserved value
Date modified: